Location: Mainz-Finthen
(49.9906°N, 8.1713°E)
Time: 03:59:08
(UTC+00:00)

N. Korean satellite - Pass Details

Date: 03 October 2021
Orbit: 450 x 495 km, 97.3° (Epoch: 15 October)

Event Time Altitude Azimuth Distance (km) Brightness Sun altitude
Rises 04:26:33 0° 18° (NNE) 2,552 10.6 -11.1°
Reaches altitude 10° 04:28:41 10° 26° (NNE) 1,675 9.7 -10.7°
Maximum altitude 04:32:08 42° 98° (E) 708 8.0 -10.2°
Drops below altitude 10° 04:35:35 10° 171° (S) 1,681 9.4 -9.6°
Sets 04:37:44 0° 178° (S) 2,562 10.2 -9.3°
